• In Netherlands
  • List of Countries
  • For 7 days
  • Water Temperature
  • Satellite Maps
  • Weather Map
  • Weather Widgets
  • user-avatar
    Login

    Hourly Weather Parakou

    Today, 27 February, Monday

    Time Temperature Precipitation Wind Pressure Humidity
    00:00 +26°C° 0 mm 1 mps 726 mmHg 42%
    01:00 +26°C° 0 mm 1 mps 726 mmHg 50%
    02:00 +25°C° 0 mm 1 mps 726 mmHg 58%
    03:00 +25°C° 0 mm 1 mps 726 mmHg 66%
    04:00 +24°C° 0 mm 1 mps 726 mmHg 71%
    05:00 +24°C° 0 mm 1 mps 726 mmHg 76%
    06:00 +23°C° 0 mm 1 mps 726 mmHg 81%
    07:00 +26°C° 0 mm 1 mps 726 mmHg 71%
    08:00 +29°C° 0 mm 2 mps 727 mmHg 60%
    09:00 +32°C° 0 mm 2 mps 727 mmHg 50%
    10:00 +36°C° 0 mm 1 mps 727 mmHg 39%
    11:00 +40°C° 0 mm 1 mps 727 mmHg 28%
    12:00 +41°C° 0 mm 0 mps 726 mmHg 18%
    13:00 +41°C° 0 mm 0 mps 725 mmHg 16%
    14:00 +41°C° 0 mm 0 mps 725 mmHg 15%
    15:00 +41°C° 0 mm 0 mps 724 mmHg 13%
    16:00 +37°C° 0 mm 0 mps 723 mmHg 17%
    17:00 +35°C° 0 mm 1 mps 723 mmHg 21%
    18:00 +32°C° 0 mm 1 mps 723 mmHg 25%
    19:00 +30°C° 0 mm 1 mps 723 mmHg 25%
    20:00 +29°C° 0 mm 1 mps 724 mmHg 25%
    21:00 +28°C° 0 mm 1 mps 725 mmHg 25%
    22:00 +27°C° 0 mm 1 mps 725 mmHg 27%
    23:00 +26°C° 0 mm 1 mps 725 mmHg 28%

    Tomorrow, 28 February, Tuesday

    Time Temperature Precipitation Wind Pressure Humidity
    00:00 +25°C° 0 mm 1 mps 725 mmHg 29%
    01:00 +25°C° 0 mm 2 mps 725 mmHg 44%
    02:00 +25°C° 0 mm 2 mps 724 mmHg 59%
    03:00 +25°C° 0 mm 2 mps 724 mmHg 74%
    04:00 +25°C° 0 mm 2 mps 725 mmHg 80%
    05:00 +24°C° 0 mm 2 mps 725 mmHg 86%
    06:00 +23°C° 0 mm 1 mps 725 mmHg 93%
    07:00 +26°C° 0 mm 2 mps 726 mmHg 80%
    08:00 +29°C° 0 mm 2 mps 726 mmHg 68%
    09:00 +32°C° 0 mm 2 mps 727 mmHg 55%
    10:00 +37°C° 0 mm 2 mps 727 mmHg 42%
    11:00 +41°C° 0 mm 1 mps 727 mmHg 30%
    12:00 +42°C° 0 mm 0 mps 726 mmHg 17%
    13:00 +42°C° 0 mm 0 mps 725 mmHg 15%
    14:00 +42°C° 0 mm 0 mps 725 mmHg 13%
    15:00 +41°C° 0 mm 0 mps 724 mmHg 12%
    16:00 +41°C° 0 mm 1 mps 723 mmHg 15%
    17:00 +36°C° 0 mm 1 mps 723 mmHg 18%
    18:00 +32°C° 0 mm 1 mps 723 mmHg 21%
    19:00 +31°C° 0 mm 1 mps 724 mmHg 23%
    20:00 +30°C° 0 mm 2 mps 724 mmHg 26%
    21:00 +28°C° 0 mm 2 mps 725 mmHg 28%
    22:00 +28°C° 0 mm 2 mps 725 mmHg 35%
    23:00 +28°C° 0 mm 2 mps 725 mmHg 42%

    Day after tomorrow, 1 March, Wednesday

    Time Temperature Precipitation Wind Pressure Humidity
    00:00 +28°C° 0 mm 2 mps 725 mmHg 49%
    01:00 +27°C° 0 mm 2 mps 725 mmHg 61%
    02:00 +27°C° 0 mm 3 mps 725 mmHg 73%
    03:00 +26°C° 0 mm 3 mps 725 mmHg 84%
    04:00 +26°C° 0 mm 2 mps 725 mmHg 88%
    05:00 +25°C° 0 mm 2 mps 725 mmHg 92%
    06:00 +24°C° 0 mm 2 mps 726 mmHg 96%
    07:00 +26°C° 0 mm 2 mps 726 mmHg 86%
    08:00 +28°C° 0 mm 3 mps 727 mmHg 75%
    09:00 +30°C° 0 mm 3 mps 728 mmHg 65%
    10:00 +35°C° 0 mm 2 mps 727 mmHg 53%
    11:00 +38°C° 0 mm 2 mps 727 mmHg 40%
    12:00 +42°C° 0 mm 1 mps 727 mmHg 28%
    13:00 +42°C° 0 mm 1 mps 726 mmHg 24%
    14:00 +42°C° 0 mm 1 mps 725 mmHg 21%
    15:00 +43°C° 0 mm 1 mps 724 mmHg 17%
    16:00 +40°C° 0 mm 1 mps 724 mmHg 21%
    17:00 +38°C° 0 mm 2 mps 724 mmHg 24%
    18:00 +35°C° 0 mm 2 mps 724 mmHg 27%
    19:00 +32°C° 0 mm 2 mps 725 mmHg 33%
    20:00 +31°C° 0 mm 2 mps 725 mmHg 39%
    21:00 +29°C° 0 mm 2 mps 726 mmHg 45%
    22:00 +29°C° 0 mm 2 mps 726 mmHg 51%
    23:00 +28°C° 0 mm 2 mps 726 mmHg 57%

    2 March, Thursday

    Time Temperature Precipitation Wind Pressure Humidity
    00:00 +28°C° 0 mm 3 mps 726 mmHg 64%
    01:00 +27°C° 0 mm 3 mps 726 mmHg 71%
    02:00 +27°C° 0 mm 3 mps 726 mmHg 78%
    03:00 +26°C° 0 mm 3 mps 725 mmHg 85%
    04:00 +25°C° 0 mm 2 mps 726 mmHg 89%
    05:00 +25°C° 0 mm 2 mps 726 mmHg 93%
    06:00 +24°C° 0 mm 2 mps 726 mmHg 97%
    07:00 +26°C° 0 mm 2 mps 727 mmHg 86%
    08:00 +28°C° 0 mm 2 mps 727 mmHg 75%
    09:00 +31°C° 0 mm 3 mps 728 mmHg 64%
    10:00 +35°C° 0 mm 2 mps 728 mmHg 52%
    11:00 +39°C° 0 mm 1 mps 727 mmHg 39%
    12:00 +43°C° 0 mm 1 mps 727 mmHg 27%
    13:00 +43°C° 0 mm 1 mps 726 mmHg 24%
    14:00 +43°C° 0 mm 1 mps 725 mmHg 21%
    15:00 +43°C° 0 mm 1 mps 724 mmHg 18%
    16:00 +41°C° 0 mm 1 mps 724 mmHg 21%
    17:00 +37°C° 0 mm 1 mps 724 mmHg 24%
    18:00 +35°C° 0 mm 2 mps 724 mmHg 27%
    19:00 +34°C° 0 mm 2 mps 725 mmHg 30%
    20:00 +32°C° 0 mm 2 mps 725 mmHg 32%
    21:00 +31°C° 0 mm 2 mps 726 mmHg 34%
    22:00 +30°C° 0 mm 2 mps 726 mmHg 42%
    23:00 +30°C° 0 mm 2 mps 726 mmHg 50%

    3 March, Friday

    Time Temperature Precipitation Wind Pressure Humidity
    00:00 +29°C° 0 mm 3 mps 726 mmHg 58%
    01:00 +28°C° 0 mm 3 mps 725 mmHg 66%
    02:00 +27°C° 0 mm 3 mps 725 mmHg 74%
    03:00 +26°C° 0 mm 3 mps 725 mmHg 82%
    04:00 +26°C° 0 mm 2 mps 725 mmHg 87%
    05:00 +25°C° 0 mm 2 mps 725 mmHg 92%
    06:00 +24°C° 0 mm 1 mps 725 mmHg 96%
    07:00 +26°C° 0 mm 2 mps 726 mmHg 85%
    08:00 +29°C° 0 mm 2 mps 727 mmHg 74%
    09:00 +31°C° 0 mm 3 mps 727 mmHg 62%
    10:00 +36°C° 0 mm 2 mps 727 mmHg 49%
    11:00 +39°C° 0 mm 1 mps 726 mmHg 37%
    12:00 +43°C° 0 mm 1 mps 726 mmHg 24%
    13:00 +43°C° 0 mm 1 mps 725 mmHg 21%
    14:00 +43°C° 0 mm 1 mps 724 mmHg 18%
    15:00 +43°C° 0 mm 1 mps 723 mmHg 15%
    16:00 +40°C° 0 mm 1 mps 723 mmHg 19%
    17:00 +36°C° 0 mm 1 mps 723 mmHg 23%
    18:00 +32°C° 0 mm 1 mps 723 mmHg 27%
    19:00 +32°C° 0 mm 1 mps 724 mmHg 28%
    20:00 +32°C° 0 mm 2 mps 724 mmHg 29%
    21:00 +31°C° 0 mm 2 mps 725 mmHg 30%
    22:00 +30°C° 0 mm 2 mps 725 mmHg 42%
    23:00 +30°C° 0 mm 3 mps 725 mmHg 54%

    4 March, Saturday

    Time Temperature Precipitation Wind Pressure Humidity
    00:00 +29°C° 0 mm 3 mps 725 mmHg 66%
    01:00 +28°C° 0 mm 3 mps 725 mmHg 72%
    02:00 +27°C° 0 mm 3 mps 724 mmHg 79%
    03:00 +26°C° 0 mm 2 mps 724 mmHg 86%
    04:00 +26°C° 0 mm 2 mps 724 mmHg 89%
    05:00 +25°C° 0 mm 2 mps 725 mmHg 92%
    06:00 +25°C° 0 mm 2 mps 725 mmHg 95%
    07:00 +27°C° 0 mm 2 mps 725 mmHg 84%
    08:00 +29°C° 0 mm 2 mps 726 mmHg 74%
    09:00 +31°C° 0 mm 2 mps 727 mmHg 63%
    10:00 +36°C° 0 mm 2 mps 726 mmHg 51%
    11:00 +39°C° 0 mm 1 mps 726 mmHg 39%
    12:00 +40°C° 0 mm 0 mps 725 mmHg 26%
    13:00 +43°C° 0 mm 1 mps 724 mmHg 24%
    14:00 +43°C° 0 mm 1 mps 723 mmHg 21%
    15:00 +43°C° 0 mm 1 mps 723 mmHg 18%
    16:00 +40°C° 0 mm 1 mps 723 mmHg 22%
    17:00 +37°C° 0 mm 1 mps 723 mmHg 25%
    18:00 +35°C° 0 mm 2 mps 723 mmHg 28%
    19:00 +34°C° 0 mm 2 mps 723 mmHg 33%
    20:00 +31°C° 0 mm 2 mps 724 mmHg 39%
    21:00 +30°C° 0 mm 2 mps 724 mmHg 44%
    22:00 +29°C° 0 mm 2 mps 724 mmHg 52%
    23:00 +28°C° 0 mm 2 mps 724 mmHg 60%
    Show more